Location: Blue Mountain Vista Observatory
(40.6992°N, 75.9422°W)
Time: 14:47:51
(UTC-05:00)

Daily predictions for brighter satellites

Satellite Brightness Start Highest point End
(mag) Time Altitude Azimuth Time Altitude Azimuth Time Altitude Azimuth
Tsikada Rocket 4.4 17:25:01 10° SSW 17:31:23 73° W 17:37:50 10° N
Cosmos 1844 3.8 17:26:19 10° NNW 17:32:08 84° ENE 17:37:56 10° SSE
Cosmos 1726 2.6 17:31:14 10° N 17:34:48 39° ENE 17:38:22 10° SSE
Cosmos 1500 Rocket 3.5 17:33:37 10° S 17:37:55 68° E 17:42:15 10° NNE
Cosmos 540 Rocket 3.6 17:34:04 10° S 17:39:06 55° ESE 17:44:10 10° NNE
USA 215 3.8 17:36:46 10° E 17:42:43 38° NNE 17:48:39 10° NW
Cosmos 2237 Rocket 2.3 17:37:38 10° S 17:43:10 64° ESE 17:48:45 10° NNE
Cosmos 44 Rocket 3.7 17:38:30 10° SW 17:43:37 70° WNW 17:48:40 10° NNE
Cosmos 2084 3.7 17:40:05 10° SW 17:43:57 59° NW 17:47:42 10° NNE
NOSS 0 Rocket 4.0 17:38:56 10° SSW 17:45:09 79° ESE 17:51:23 10° NNE
COSMOS 2428 4.0 17:42:43 10° SW 17:48:05 41° WNW 17:53:28 10° N
BREEZE-M DEB (TANK) 3.6 17:40:38 10° NW 17:48:56 61° SW 17:52:03 10° SSE
SL-16 R/B 3.0 17:45:23 10° SSE 17:50:14 30° ESE 17:55:06 10° NE
Cosmos 1300 2.7 17:46:31 10° N 17:50:20 61° E 17:54:07 10° SSE
Cosmos 1340 Rocket 3.5 17:47:01 10° SSE 17:50:31 32° E 17:54:03 10° NNE
SL-14 R/B 3.3 17:47:53 10° S 17:51:45 59° E 17:55:40 10° NNE
Cosmos 1634 Rocket 4.0 17:45:41 10° N 17:51:54 83° E 17:58:03 10° S
Abrixas 2.3 17:50:22 10° WSW 17:53:18 83° SE 17:55:48 13° ENE
Cosmos 1461 3.9 17:50:14 10° S 17:53:52 29° ESE 17:57:06 12° ENE
Cosmos 2058 3.1 17:50:30 10° SSE 17:54:25 46° E 17:58:22 10° NNE
Cosmos 1484 Rocket 2.8 17:51:19 10° SSE 17:55:12 65° ENE 17:59:10 10° N
Cosmos 304 Rocket 4.2 17:56:42 10° S 18:01:12 41° ESE 18:05:44 10° NNE
Cosmos 2297 4.1 17:56:21 10° N 18:01:45 41° ENE 18:07:08 10° SE
Lacrosse 5 4.1 18:04:55 10° NW 18:07:18 13° N 18:09:40 10° NNE
Cosmos 1844 Rocket 4.5 18:03:34 10° NW 18:08:41 36° WSW 18:13:45 10° S
Meteor 1-28 Rocket 3.2 18:11:31 10° NNE 18:15:11 58° E 18:18:52 10° S
Cosmos 1356 Rocket 4.0 18:12:32 10° SSE 18:16:08 33° E 18:19:10 13° NNE
OTV 4 3.1 18:14:05 10° WSW 18:16:11 17° SSW 18:18:15 10° SSE
Cosmos 1125 Rocket 4.1 18:11:20 10° NNW 18:16:29 60° WSW 18:21:33 10° S
Transit 2A Rocket 4.4 18:12:32 10° NNW 18:16:53 88° ENE 18:21:12 10° SSE
CZ-2C R/B 4.5 18:13:06 10° SSW 18:17:30 31° W 18:21:49 10° NW
Meteor 2-10 3.9 18:12:28 10° N 18:17:36 81° E 18:22:50 10° SSE
CENTAUR R/B 4.1 18:12:53 10° W 18:18:19 30° NW 18:24:22 10° NNE
YAOGAN 1 4.4 18:15:01 10° SSW 18:18:59 35° W 18:22:57 10° NNW
COSMO-SKYMED 1 2.6 18:15:21 10° N 18:19:43 83° WNW 18:24:03 10° SSW
Cosmos 1707 Rocket 3.8 18:15:42 10° N 18:19:50 42° ENE 18:23:57 10° SSE
USA 229 DEB 4.4 18:15:01 10° S 18:20:53 32° ESE 18:24:43 19° ENE
USA 229 4.4 18:15:08 10° S 18:20:59 31° ESE 18:24:46 19° ENE
DMSP B5D1-3 4.4 18:16:01 10° NNE 18:21:06 70° ESE 18:26:11 10° S
Spot 2 Rocket 4.4 18:19:45 10° ESE 18:23:53 26° ENE 18:28:03 10° N
Resurs 01 Rocket 2.6 18:26:17 23° E 18:27:18 25° ENE 18:30:57 10° NNE
FENGYUN 3A 4.3 18:23:17 10° SE 18:27:56 31° ENE 18:32:38 10° N
Meteor 1-11 4.4 18:24:13 10° SSW 18:29:53 75° W 18:35:40 10° N
Cosmos 1666 Rocket 3.7 18:25:50 10° SSE 18:29:59 48° E 18:34:12 10° NNE
Lacrosse 5 rocket 1.4 18:26:20 10° NW 18:30:08 71° SW 18:34:08 10° SE
METEOR-M 4.1 18:27:47 10° SSE 18:33:04 66° ENE 18:38:23 10° N
Timation 1 Rocket 4.3 18:27:03 10° NNW 18:33:07 81° ENE 18:39:08 10° SSE
Cosmos 1184 Rocket 3.4 18:30:17 10° SSE 18:33:17 36° E 18:33:17 36° E
Cosmos 1538 Rocket 4.0 18:31:01 10° S 18:36:13 62° ESE 18:40:44 14° NNE
Cosmos 2151 4.4 18:32:34 10° SSW 18:36:31 39° WNW 18:40:28 10° N
Iridium 4 Rocket 3.6 18:35:12 10° SSE 18:39:18 34° E 18:39:48 33° ENE
Cosmos 2279 Rocket 4.3 18:34:23 10° NNW 18:40:35 70° W 18:46:46 10° S
ATLAS 5 CENTAUR R/B 4.3 18:40:34 10° NNE 18:41:48 11° NNE 18:41:50 11° NNE
FengYun 1-2 T 4.4 18:40:41 10° SE 18:46:00 49° ENE 18:51:18 10° N
ALOS 2.5 18:41:55 10° SE 18:46:20 43° ENE 18:50:45 10° N
NOAA 12 4.1 18:43:58 10° SSE 18:49:12 83° WSW 18:54:30 10° NNW
Cosmos 2333 Rocket 3.9 18:46:04 10° WSW 18:50:57 29° NW 18:55:52 10° N
Cosmos 2219 Rocket 4.3 18:47:56 10° WSW 18:52:22 23° NW 18:56:48 10° N
Cosmos 1626 2.3 18:50:24 10° SSW 18:54:07 73° W 18:56:50 18° N
Cosmos 1603 4.1 18:49:34 10° S 18:54:41 37° ESE 18:55:01 37° E
SJ-6B 3.0 18:54:10 10° S 18:58:14 76° WSW 19:02:23 10° NNW
Nadezhda 4 Rocket 3.9 18:53:45 10° S 19:00:01 88° E 19:06:22 10° N
Cosmos 2242 Rocket 3.5 18:56:31 10° N 19:00:55 62° E 19:05:18 10° SSE
Cosmos 1703 4.4 18:58:49 10° SSW 19:02:32 42° WNW 19:06:16 10° N
Cosmos 2278 Rocket 4.2 18:58:11 10° NW 19:03:01 29° WSW 19:07:51 10° SSW
Cosmos 1455 2.4 19:02:44 10° NNW 19:06:31 70° W 19:10:18 10° S
SL-19 R/B 4.3 19:06:49 10° SSE 19:12:44 89° WSW 19:18:23 10° NNW
Lacrosse 4 Rocket 2.8 19:10:14 10° NNW 19:12:09 26° N 19:12:09 26° N
Cosmos 773 Rocket 3.9 19:12:21 10° SSW 19:17:30 84° WNW 19:19:20 42° NNE
Cosmos 1092 Rocket 3.9 19:14:02 10° S 19:20:22 89° W 19:26:45 10° N
USA 215 3.3 19:21:36 28° SE 19:25:23 76° SW 19:31:58 10° NW
Sich 1 4.3 19:21:45 10° SSW 19:25:57 41° WNW 19:29:41 13° N
Cosmos 2237 Rocket 4.4 19:23:37 10° W 19:27:43 20° NW 19:31:51 10° N
Cosmos 2369 Rocket 3.9 19:27:30 10° N 19:29:27 20° N 19:29:27 20° N
Cosmos 1633 Rocket 4.4 19:29:19 10° SSW 19:33:26 39° WNW 19:36:07 19° NNW
SL-16 R/B 3.4 19:28:58 10° SW 19:34:11 38° WNW 19:37:58 18° N
Cosmos 2195 Rocket 4.3 19:39:29 10° S 19:45:35 86° W 19:46:13 73° N
Lacrosse 5 4.3 19:49:20 10° NNW 19:50:06 12° NNW 19:50:06 12° NNW
CZ-3A R/B 3.6 19:55:50 10° WNW 20:00:16 51° SW 20:01:30 44° S
Resurs 01 Rocket 3.4 20:03:50 29° W 20:03:50 29° W 20:07:33 10° NW
CZ-4C R/B 4.5 20:00:35 10° NNW 20:02:59 18° N 20:02:59 18° N
USA 229 DEB 4.2 20:04:49 10° SW 20:11:30 53° NW 20:12:13 51° NNW
USA 229 4.2 20:04:55 10° SW 20:11:36 54° NW 20:12:16 52° NNW
